Regional Weather Roundup
Issued by NWS

Home | Current Version | Previous Version | Graphics & Text | Print | Product List | Glossary On
Versions: 1 2 3 4 5 6 7 8 9 10 11 12 13 14 15 16 17 18 19 20 21 22 23 24 25 26 27 28 29 30 31 32 33 34 35 36 37 38 39 40 41 42 43 44 45 46 47 48 49 50
000
ASUS43 KMKX 281111
RWRWI

WISCONSIN REGIONAL WEATHER ROUNDUP
NATIONAL WEATHER SERVICE MILWAUKEE/SULLIVAN WI
600 AM CDT SAT MAY 28 2016

NOTE: "FAIR" INDICATES FEW OR NO CLOUDS BELOW 12,000 FEET WITH NO
SIGNIFICANT WEATHER AND/OR OBSTRUCTIONS TO VISIBILITY.

WIZ001-002-006>008-014>016-023>028-281200-
NORTHWEST WISCONSIN

CITY           SKY/WX    TMP DP  RH WIND       PRES   REMARKS
SUPERIOR ARPT  FOG       44  44 100 CALM      29.79F VSB 3/4
ASHLAND        CLOUDY    48  46  93 SW5       29.78S
HAYWARD        CLOUDY    55  55 100 CALM      29.77F FOG
SIREN          FOG       53  52  97 N6        29.78S VSB 1
CUMBERLAND     FOG       55  55 100 CALM      29.78R VSB 1/2
RICE LAKE      CLOUDY    59  58  95 CALM      29.78S FOG
CHETEK         CLOUDY    60  60 100 CALM      29.77R FOG
LADYSMITH      CLOUDY    63  62  97 CALM      29.78S
EAU CLAIRE     LGT RAIN  61  61 100 SE13      29.74F FOG
MENOMONIE      FOG       63  63  99 CALM      29.76F VSB 1/4
NEW RICHMOND   LGT RAIN  61  61 100 CALM      29.78R
OSCEOLA        FOG       58  58 100 CALM      29.79F VSB 1/4
$$

WIZ003>005-009-010-017-018-281200-
NORTH CENTRAL WISCONSIN

CITY           SKY/WX    TMP DP  RH WIND       PRES   REMARKS
MANITOWISH WTR NOT AVBL
ARBOR VITAE    CLOUDY    65  64  94 CALM      29.79S FOG
WOODRUFF       CLOUDY    65  64  94 CALM      29.79S FOG
RHINELANDER    CLOUDY    66  64  93 CALM      29.79F FOG
EAGLE RIVER      N/A     64  64  99 CALM      29.79F FOG
LAND O LAKES   CLOUDY    64  64  99 SE5       29.81F FOG
PHILLIPS       CLOUDY    64  64 100 S3        29.77R
TOMAHAWK       CLOUDY    65  64  96 SE3       29.78F FOG
MEDFORD        CLOUDY    64  64 100 CALM      29.77S FOG
MERRILL        CLOUDY    67  67 100 SE6       29.79S FOG
$$

WIZ029-030-035-036-043>047-281200-
CENTRAL WISCONSIN

CITY           SKY/WX    TMP DP  RH WIND       PRES   REMARKS
WAUSAU         CLOUDY    69  66  90 SE7       29.76S FOG
MOSINEE        CLOUDY    66  66 100 SE5       29.79S FOG
MARSHFIELD     CLOUDY    68  65  90 E3        29.75F FOG
STEVENS POINT  LGT RAIN  66  65  98 SE7       29.78S
WAUPACA        RAIN      69  69 100 SE5       29.79S
WAUTOMA        LGT RAIN  67  66  97 SE6       29.78F
WISC RAPIDS    LGT RAIN  68  65  90 S7        29.77S
CAMP DOUGLAS   CLOUDY    68 N/A N/A E7        29.73F
$$

WIZ011>013-019>022-031-037>040-048>050-281200-
NORTHEAST WISCONSIN

CITY           SKY/WX    TMP DP  RH WIND       PRES   REMARKS
ANTIGO         CLOUDY    65  65 100 S9        29.81S FOG
SHAWANO        RAIN      69  67  95 S5        29.80S
OCONTO         CLOUDY   N/A N/A N/A NE3       29.81S
STURGEON BAY   NOT AVBL
GREEN BAY      CLOUDY    68  65  90 S3        29.81S
MANITOWOC      CLOUDY    58  57  97 S10       29.85R FOG
APPLETON       MOCLDY    66  66 100 S8        29.80S
CLINTONVILLE   LGT RAIN  66  64  94 S7        29.80S
OSHKOSH        CLOUDY    67  64  90 S7        29.80S
$$

WIZ032>034-041-042-053>061-281200-
SOUTHWEST WISCONSIN

CITY           SKY/WX    TMP DP  RH WIND       PRES   REMARKS
LA CROSSE      HVY RAIN  67  65  93 VRB3      29.73R VSB 1
SPARTA         RAIN      64  64 100 CALM      29.74S
VIROQUA        CLOUDY    65  65 100 CALM      29.73F
BOSCOBEL       LGT RAIN  67  65  93 SW6       29.73R FOG
PRAIRIE DU CHI DRIZZLE   65  64  95 CALM      29.73R
PLATTEVILLE    MOCLDY    67  66  96 S18       29.75R
$$

WIZ056-057-062-063-064-067-068-281200-
SOUTH CENTRAL WISCONSIN

CITY           SKY/WX    TMP DP  RH WIND       PRES   REMARKS
REEDSBURG      CLOUDY    67  66  97 SE5       29.74S
BARABOO/DELLS  CLOUDY    67  64  88 S13       29.76R
LONE ROCK      CLOUDY    69  66  90 SE7       29.74R
MINERAL POINT  CLOUDY    68  68 100 S14       29.75R
MADISON        CLOUDY    69  66  90 S16       29.77R
MIDDLETON      CLOUDY    69  67  94 S8        29.77S
WATERTOWN      CLOUDY    68  67  95 SE10      29.80F
MONROE         CLOUDY    68  64  88 S15       29.78S
JANESVILLE     CLOUDY    70  66  88 S15       29.80R
$$

WIZ051-052-058>065-066-070>072-281200-
SOUTHEAST WISCONSIN

CITY           SKY/WX    TMP DP  RH WIND       PRES   REMARKS
MILWAUKEE      CLOUDY    67  63  87 S13       29.84S
WAUKESHA       MOCLDY    66  64  94 S12       29.85S
MILWAUKEE/TIMM CLOUDY    68  61  77 S9        29.84F
RACINE         CLOUDY    64  61  90 S12       29.87R
BURLINGTON     CLOUDY    66  64  93 S8        29.83F FOG
KENOSHA        CLOUDY    68  63  84 S8        29.85S
FOND DU LAC    CLOUDY    69  65  86 S10       29.80F
SHEBOYGAN      CLOUDY    62  60  93 S6        29.83F FOG
WEST BEND      CLOUDY    66  63  88 SE6       29.83F
JUNEAU         CLOUDY    67  64  91 SE12G17   29.82S
$$

LSZ147-162-281200-
LAKE SUPERIOR

STATION/POSITION TIME  TEMP    WIND        PRES    WAVE
                       AIR SEA DIR/SP/G            HT/PER
                 (UTC) (F)     (DEG/KT/KT) (MB)    (FT/S)
W MID LAKE BUOY  1050   40 38   50/ 10/ 10 1008.6R   2/ 5
DEVILS ISLAND    1100   43     360/  3/  4 1009.0R
SAXON HARBOR     1000   47      CALM  /  2 1007.8R
$$

LMZ867-665-643>646-281200-
LAKE MICHIGAN

STATION/POSITION TIME  TEMP    WIND        PRES    WAVE
                       AIR SEA DIR/SP/G            HT/PER
                 (UTC) (F)     (DEG/KT/KT) (MB)    (FT/S)
CHAMBERS ISLAND  1040   61     150/  6/ 12 1010.2R
N MID LAKE BUOY  1050   53 46  190/ 14/ 16 1010.7R   1/ 3
NORTHPORT PIER   1000   57     160/  6/ 12 1010.5R
SISTER BAY       1020   58     170/ 14/ 17   N/A
ALGOMA LAKESHORE 1047          190/  6/  8   N/A
KEWAUNEE LAKESHO 1000   53     170/  9/ 12 1009.8R
SHEBOYGAN LAKESH 1100   54     170/ 14/ 14 1010.8F
PORT WASHINGTON  1040   56     170/  2/  7 1011.2S
S MID LAKE BUOY  1050   56 50  130/ 12/ 14 1011.3F   1/ 3
KENOSHA   LAKESH 1100   58     170/ 12/ 19 1010.8S
$$

TC  - TEMPERATURE IN CELSIUS
VSB - VISIBILITY IN STATUTE MILES
WCI - WIND CHILL INDEX
HX  - HEAT INDEX




USA.gov is the U.S. government's official web portal to all federal, state and local government web resources and services.